Location: Grossmotten
(48.5500°N, 15.3833°E)
Time: 17:48:20
(UTC+00:00)

Cosmos 2150 Rocket - Pass Details

Date: 15 November 2019
Orbit: 749 x 807 km, 74.0° (Epoch: 06 December)

Event Time Altitude Azimuth Distance (km) Brightness Sun altitude
Rises 05:05:11 0° 202° (SSW) 3,311 7.2 -10.1°
Reaches altitude 10° 05:07:35 10° 203° (SSW) 2,384 6.5 -9.8°
Maximum altitude 05:13:03 85° 293° (WNW) 813 4.1 -8.9°
Drops below altitude 10° 05:18:30 10° 22° (NNE) 2,380 6.6 -8.0°
Sets 05:20:54 0° 23° (NNE) 3,307 7.3 -7.7°
